| time (UTC) | temp C | wind direction | speed KPH | gust KPH | rain 1hr cm | rain 24hr cm | rain mn cm | humidity % | barometer mb |
| 20260509032244 | 14 | 155 | 6.4 | 9.7 | 0.00 | 0.00 | 0.00 | 65 | 1010.4 |
| 20260509031742 | 14 | 166 | 1.6 | 4.8 | 0.00 | 0.00 | 0.00 | 65 | 1010.8 |
| 20260509031240 | 14 | 153 | 1.6 | 3.2 | 0.00 | 0.00 | 0.00 | 64 | 1010.9 |
| 20260509030737 | 14 | 190 | 3.2 | 3.2 | 0.00 | 0.00 | 0.00 | 65 | 1010.8 |
| 20260509030235 | 14 | 159 | 1.6 | 4.8 | 0.00 | 0.00 | 0.00 | 64 | 1011.0 |
| 20260509025732 | 14 | 163 | 3.2 | 3.2 | 0.00 | 0.00 | 0.00 | 62 | 1010.9 |
| 20260509025227 | 14 | 147 | 3.2 | 4.8 | 0.00 | 0.00 | 0.00 | 62 | 1010.8 |
| 20260509024722 | 14 | 159 | 1.6 | 4.8 | 0.00 | 0.00 | 0.00 | 63 | 1011.0 |
| 20260509024218 | 14 | 156 | 3.2 | 3.2 | 0.00 | 0.00 | 0.00 | 62 | 1010.9 |
| 20260509023716 | 14 | 141 | 3.2 | 3.2 | 0.00 | 0.00 | 0.00 | 61 | 1010.8 |
| 20260509023213 | 15 | 131 | 0.0 | 1.6 | 0.00 | 0.00 | 0.00 | 60 | 1011.0 |
| 20260509022709 | 15 | 118 | 1.6 | 4.8 | 0.00 | 0.00 | 0.00 | 59 | 1011.1 |
| 20260509022207 | 14 | 142 | 4.8 | 4.8 | 0.00 | 0.00 | 0.00 | 59 | 1010.9 |
| 20260509021704 | 14 | 143 | 0.0 | 1.6 | 0.00 | 0.00 | 0.00 | 61 | 1011.0 |
| 20260509021201 | 14 | 146 | 0.0 | 1.6 | 0.00 | 0.00 | 0.00 | 60 | 1011.1 |
| 20260509020659 | 14 | 139 | 0.0 | 1.6 | 0.00 | 0.00 | 0.00 | 61 | 1010.7 |
| 20260509020156 | 14 | 156 | 1.6 | 3.2 | 0.00 | 0.00 | 0.00 | 63 | 1011.0 |
| 20260509015654 | 14 | 139 | 0.0 | 0.0 | 0.00 | 0.00 | 0.00 | 64 | 1010.9 |
| 20260509015152 | 14 | 147 | 0.0 | 1.6 | 0.00 | 0.00 | 0.00 | 62 | 1011.1 |
| 20260509014648 | 15 | 141 | 1.6 | 1.6 | 0.00 | 0.00 | 0.00 | 60 | 1010.8 |
| 20260509014144 | 14 | 133 | 0.0 | 1.6 | 0.00 | 0.00 | 0.00 | 61 | 1010.8 |
| 20260509013642 | 14 | 137 | 0.0 | 0.0 | 0.00 | 0.00 | 0.00 | 61 | 1010.8 |
| 20260509013138 | 14 | 133 | 0.0 | 0.0 | 0.00 | 0.00 | 0.00 | 61 | 1010.9 |
| 20260509012634 | 13 | 138 | 0.0 | 0.0 | 0.00 | 0.00 | 0.00 | 61 | 1010.6 |
| 20260509012131 | 13 | 150 | 0.0 | 0.0 | 0.00 | 0.00 | 0.00 | 60 | 1010.7 |
| 20260509011629 | 14 | 150 | 0.0 | 0.0 | 0.00 | 0.00 | 0.00 | 59 | 1010.8 |
| 20260509011126 | 15 | 150 | 0.0 | 0.0 | 0.00 | 0.00 | 0.00 | 61 | 1010.9 |
| 20260509010624 | 15 | 151 | 0.0 | 0.0 | 0.00 | 0.00 | 0.00 | 55 | 1011.0 |
| 20260509010120 | 15 | 144 | 0.0 | 0.0 | 0.00 | 0.00 | 0.00 | 56 | 1010.8 |
| 20260509005618 | 16 | 143 | 0.0 | 0.0 | 0.00 | 0.00 | 0.00 | 55 | 1010.9 |
| 20260509005114 | 16 | 146 | 0.0 | 0.0 | 0.00 | 0.00 | 0.00 | 55 | 1010.7 |
| 20260509004610 | 16 | 146 | 0.0 | 0.0 | 0.00 | 0.00 | 0.00 | 55 | 1010.6 |
| 20260509004107 | 16 | 145 | 0.0 | 0.0 | 0.00 | 0.00 | 0.00 | 54 | 1010.8 |
| 20260509003605 | 17 | 160 | 0.0 | 0.0 | 0.00 | 0.00 | 0.00 | 51 | 1011.0 |
| 20260509003102 | 17 | 160 | 0.0 | 0.0 | 0.00 | 0.00 | 0.00 | 51 | 1010.7 |
| 20260509002600 | 17 | 160 | 0.0 | 0.0 | 0.00 | 0.00 | 0.00 | 49 | 1011.0 |
| 20260509002057 | 18 | 159 | 0.0 | 0.0 | 0.00 | 0.00 | 0.00 | 49 | 1010.9 |
| 20260509001554 | 18 | 151 | 0.0 | 1.6 | 0.00 | 0.00 | 0.00 | 48 | 1010.7 |
| 20260509001050 | 18 | 165 | 1.6 | 1.6 | 0.00 | 0.00 | 0.00 | 47 | 1010.9 |
| 20260509000549 | 18 | 203 | 3.2 | 3.2 | 0.00 | 0.00 | 0.00 | 46 | 1010.8 |
| 20260509000044 | 19 | 206 | 3.2 | 4.8 | 0.00 | 0.00 | 0.00 | 44 | 1010.8 |
| 20260508235542 | 19 | 201 | 3.2 | 3.2 | 0.00 | 0.00 | 0.00 | 44 | 1010.6 |
| 20260508235038 | 20 | 250 | 4.8 | 4.8 | 0.00 | 0.00 | 0.00 | 44 | 1010.7 |
| 20260508234536 | 20 | 131 | 3.2 | 4.8 | 0.00 | 0.00 | 0.00 | 42 | 1010.8 |
| 20260508234033 | 20 | 209 | 3.2 | 4.8 | 0.00 | 0.00 | 0.00 | 42 | 1010.7 |
| 20260508233532 | 20 | 199 | 4.8 | 4.8 | 0.00 | 0.00 | 0.00 | 44 | 1010.5 |
| 20260508233029 | 20 | 213 | 3.2 | 4.8 | 0.00 | 0.00 | 0.00 | 44 | 1010.7 |
| 20260508232526 | 20 | 222 | 3.2 | 8.0 | 0.00 | 0.00 | 0.00 | 43 | 1010.7 |
| 20260508232023 | 20 | 287 | 4.8 | 8.0 | 0.00 | 0.00 | 0.00 | 43 | 1010.7 |
| 20260508231520 | 20 | 245 | 8.0 | 9.7 | 0.00 | 0.00 | 0.00 | 42 | 1010.5 |
| 20260508231017 | 20 | 157 | 4.8 | 8.0 | 0.00 | 0.00 | 0.00 | 42 | 1010.9 |
| 20260508230514 | 20 | 218 | 4.8 | 9.7 | 0.00 | 0.00 | 0.00 | 42 | 1011.0 |
| 20260508230010 | 20 | 258 | 8.0 | 11.3 | 0.00 | 0.00 | 0.00 | 40 | 1010.7 |
| 20260508225508 | 20 | 234 | 8.0 | 9.7 | 0.00 | 0.00 | 0.00 | 41 | 1010.8 |
| 20260508225004 | 20 | 212 | 8.0 | 9.7 | 0.00 | 0.00 | 0.00 | 39 | 1010.9 |
| 20260508224502 | 20 | 245 | 6.4 | 11.3 | 0.00 | 0.00 | 0.00 | 39 | 1011.0 |
| 20260508223959 | 20 | 246 | 8.0 | 14.5 | 0.00 | 0.00 | 0.00 | 40 | 1010.8 |
| 20260508223457 | 20 | 165 | 3.2 | 8.0 | 0.00 | 0.00 | 0.00 | 42 | 1010.8 |
| 20260508222954 | 20 | 208 | 9.7 | 14.5 | 0.00 | 0.00 | 0.00 | 39 | 1010.9 |
| 20260508222452 | 20 | 184 | 3.2 | 11.3 | 0.00 | 0.00 | 0.00 | 39 | 1010.9 |
| 20260508221948 | 20 | 246 | 8.0 | 12.9 | 0.00 | 0.00 | 0.00 | 39 | 1011.1 |
| 20260508221444 | 20 | 160 | 6.4 | 11.3 | 0.00 | 0.00 | 0.00 | 42 | 1010.7 |
| 20260508220940 | 20 | 206 | 8.0 | 9.7 | 0.00 | 0.00 | 0.00 | 39 | 1010.8 |
| 20260508220437 | 21 | 208 | 8.0 | 11.3 | 0.00 | 0.00 | 0.00 | 38 | 1011.1 |
| 20260508215933 | 21 | 205 | 4.8 | 9.7 | 0.00 | 0.00 | 0.00 | 40 | 1010.9 |
| 20260508215430 | 20 | 227 | 8.0 | 12.9 | 0.00 | 0.00 | 0.00 | 37 | 1010.9 |
| 20260508214927 | 20 | 192 | 4.8 | 14.5 | 0.00 | 0.00 | 0.00 | 40 | 1010.9 |
| 20260508214425 | 20 | 169 | 4.8 | 8.0 | 0.00 | 0.00 | 0.00 | 39 | 1011.1 |
| 20260508213920 | 20 | 216 | 6.4 | 11.3 | 0.00 | 0.00 | 0.00 | 38 | 1011.1 |
| 20260508213418 | 20 | 200 | 6.4 | 8.0 | 0.00 | 0.00 | 0.00 | 42 | 1011.1 |
| 20260508212913 | 20 | 187 | 3.2 | 11.3 | 0.00 | 0.00 | 0.00 | 38 | 1011.0 |
| 20260508212410 | 20 | 189 | 4.8 | 12.9 | 0.00 | 0.00 | 0.00 | 40 | 1011.2 |
| 20260508211906 | 20 | 211 | 8.0 | 9.7 | 0.00 | 0.00 | 0.00 | 39 | 1011.2 |
| 20260508211402 | 20 | 207 | 6.4 | 8.0 | 0.00 | 0.00 | 0.00 | 38 | 1011.3 |
| 20260508210900 | 20 | 203 | 4.8 | 4.8 | 0.00 | 0.00 | 0.00 | 38 | 1011.4 |
| 20260508210356 | 20 | 200 | 4.8 | 9.7 | 0.00 | 0.00 | 0.00 | 40 | 1011.5 |
| 20260508205852 | 20 | 213 | 9.7 | 12.9 | 0.00 | 0.00 | 0.00 | 39 | 1011.5 |
| 20260508205349 | 20 | 262 | 11.3 | 14.5 | 0.00 | 0.00 | 0.00 | 38 | 1011.4 |
| 20260508204845 | 20 | 170 | 6.4 | 9.7 | 0.00 | 0.00 | 0.00 | 40 | 1011.3 |
| 20260508204343 | 20 | 209 | 12.9 | 14.5 | 0.00 | 0.00 | 0.00 | 38 | 1011.7 |
| 20260508203838 | 20 | 171 | 6.4 | 16.1 | 0.00 | 0.00 | 0.00 | 39 | 1011.7 |
| 20260508203335 | 20 | 218 | 3.2 | 8.0 | 0.00 | 0.00 | 0.00 | 38 | 1011.6 |
| 20260508202830 | 20 | 158 | 3.2 | 4.8 | 0.00 | 0.00 | 0.00 | 38 | 1011.6 |
| 20260508202328 | 20 | 174 | 3.2 | 4.8 | 0.00 | 0.00 | 0.00 | 40 | 1011.7 |
| 20260508201825 | 20 | 198 | 8.0 | 14.5 | 0.00 | 0.00 | 0.00 | 36 | 1011.7 |
| 20260508201322 | 20 | 221 | 8.0 | 11.3 | 0.00 | 0.00 | 0.00 | 38 | 1011.8 |
| 20260508200818 | 20 | 239 | 11.3 | 14.5 | 0.00 | 0.00 | 0.00 | 38 | 1012.1 |
| 20260508200315 | 20 | 173 | 6.4 | 16.1 | 0.00 | 0.00 | 0.00 | 38 | 1012.0 |
| 20260508195811 | 19 | 194 | 4.8 | 12.9 | 0.00 | 0.00 | 0.00 | 41 | 1012.3 |
| 20260508195308 | 19 | 195 | 8.0 | 11.3 | 0.00 | 0.00 | 0.00 | 37 | 1012.5 |
| 20260508194804 | 20 | 140 | 9.7 | 17.7 | 0.00 | 0.00 | 0.00 | 39 | 1012.4 |
| 20260508194301 | 19 | 131 | 12.9 | 16.1 | 0.00 | 0.00 | 0.00 | 35 | 1012.5 |
| 20260508193758 | 20 | 214 | 11.3 | 14.5 | 0.00 | 0.00 | 0.00 | 39 | 1012.3 |
| 20260508193255 | 19 | 201 | 3.2 | 3.2 | 0.00 | 0.00 | 0.00 | 39 | 1012.6 |
| 20260508192751 | 19 | 157 | 4.8 | 16.1 | 0.00 | 0.00 | 0.00 | 40 | 1012.8 |
| 20260508192248 | 19 | 139 | 6.4 | 16.1 | 0.00 | 0.00 | 0.00 | 39 | 1012.7 |
| 20260508191746 | 19 | 154 | 6.4 | 11.3 | 0.00 | 0.00 | 0.00 | 40 | 1013.0 |
| 20260508191243 | 18 | 176 | 9.7 | 12.9 | 0.00 | 0.00 | 0.00 | 39 | 1012.8 |
| 20260508190740 | 18 | 217 | 9.7 | 14.5 | 0.00 | 0.00 | 0.00 | 41 | 1013.3 |
| 20260508190236 | 18 | 143 | 6.4 | 14.5 | 0.00 | 0.00 | 0.00 | 39 | 1013.3 |
| 20260508185732 | 18 | 207 | 4.8 | 12.9 | 0.00 | 0.00 | 0.00 | 38 | 1013.8 |
| 20260508185230 | 19 | 187 | 8.0 | 11.3 | 0.00 | 0.00 | 0.00 | 40 | 1013.9 |
| 20260508184727 | 18 | 111 | 0.0 | 9.7 | 0.00 | 0.00 | 0.00 | 45 | 1013.8 |
| 20260508184224 | 18 | 186 | 11.3 | 16.1 | 0.00 | 0.00 | 0.00 | 42 | 1013.9 |
| 20260508183721 | 18 | 199 | 6.4 | 9.7 | 0.00 | 0.00 | 0.00 | 40 | 1014.0 |
| 20260508183217 | 18 | 173 | 6.4 | 12.9 | 0.00 | 0.00 | 0.00 | 39 | 1014.1 |
| 20260508182713 | 18 | 167 | 4.8 | 14.5 | 0.00 | 0.00 | 0.00 | 44 | 1014.5 |
| 20260508182210 | 18 | 172 | 9.7 | 11.3 | 0.00 | 0.00 | 0.00 | 41 | 1014.3 |
| 20260508181706 | 18 | 139 | 9.7 | 12.9 | 0.00 | 0.00 | 0.00 | 41 | 1014.5 |
| 20260508181203 | 17 | 208 | 1.6 | 8.0 | 0.00 | 0.00 | 0.00 | 43 | 1014.4 |
| 20260508180700 | 18 | 158 | 11.3 | 14.5 | 0.00 | 0.00 | 0.00 | 40 | 1014.6 |
| 20260508180157 | 18 | 96 | 4.8 | 9.7 | 0.00 | 0.00 | 0.00 | 39 | 1014.7 |
| 20260508175653 | 18 | 152 | 8.0 | 11.3 | 0.00 | 0.00 | 0.00 | 40 | 1014.6 |
| 20260508175149 | 18 | 155 | 1.6 | 8.0 | 0.00 | 0.00 | 0.00 | 45 | 1014.8 |
| 20260508174648 | 18 | 146 | 4.8 | 11.3 | 0.00 | 0.00 | 0.00 | 43 | 1014.7 |
| 20260508174144 | 18 | 148 | 1.6 | 3.2 | 0.00 | 0.00 | 0.00 | 43 | 1015.0 |
| 20260508173641 | 17 | 85 | 1.6 | 9.7 | 0.00 | 0.00 | 0.00 | 46 | 1015.2 |
| 20260508173137 | 17 | 177 | 8.0 | 11.3 | 0.00 | 0.00 | 0.00 | 45 | 1015.3 |
| 20260508172634 | 17 | 181 | 3.2 | 11.3 | 0.00 | 0.00 | 0.00 | 47 | 1015.4 |
| 20260508172131 | 17 | 180 | 4.8 | 11.3 | 0.00 | 0.00 | 0.00 | 41 | 1015.7 |
| 20260508171627 | 17 | 169 | 3.2 | 4.8 | 0.00 | 0.00 | 0.00 | 44 | 1015.8 |
| 20260508171124 | 17 | 163 | 6.4 | 11.3 | 0.00 | 0.00 | 0.00 | 46 | 1015.9 |
| 20260508170621 | 17 | 112 | 3.2 | 9.7 | 0.00 | 0.00 | 0.00 | 45 | 1015.8 |
| 20260508170119 | 17 | 125 | 1.6 | 1.6 | 0.00 | 0.00 | 0.00 | 43 | 1015.8 |
| 20260508165616 | 17 | 220 | 4.8 | 4.8 | 0.00 | 0.00 | 0.00 | 46 | 1016.0 |
| 20260508165113 | 17 | 152 | 4.8 | 4.8 | 0.00 | 0.00 | 0.00 | 50 | 1016.0 |
| 20260508164609 | 17 | 150 | 1.6 | 1.6 | 0.00 | 0.00 | 0.00 | 45 | 1016.0 |
| 20260508164106 | 17 | 13 | 4.8 | 4.8 | 0.00 | 0.00 | 0.00 | 44 | 1016.2 |
| 20260508163603 | 16 | 106 | 1.6 | 9.7 | 0.00 | 0.00 | 0.00 | 50 | 1016.3 |
| 20260508163100 | 16 | 163 | 8.0 | 11.3 | 0.00 | 0.00 | 0.00 | 49 | 1016.2 |
| 20260508162556 | 16 | 171 | 3.2 | 4.8 | 0.00 | 0.00 | 0.00 | 52 | 1016.4 |
| 20260508162054 | 16 | 78 | 6.4 | 11.3 | 0.00 | 0.00 | 0.00 | 47 | 1016.8 |
| 20260508161550 | 16 | 195 | 8.0 | 11.3 | 0.00 | 0.00 | 0.00 | 48 | 1016.6 |
| 20260508161048 | 16 | 144 | 0.0 | 8.0 | 0.00 | 0.00 | 0.00 | 47 | 1016.8 |
| 20260508160546 | 16 | 110 | 3.2 | 3.2 | 0.00 | 0.00 | 0.00 | 49 | 1016.9 |
| 20260508160043 | 15 | 205 | 4.8 | 8.0 | 0.00 | 0.00 | 0.00 | 48 | 1017.1 |
| 20260508155540 | 15 | 207 | 4.8 | 4.8 | 0.00 | 0.00 | 0.00 | 50 | 1017.1 |
| 20260508155037 | 15 | 222 | 6.4 | 9.7 | 0.00 | 0.00 | 0.00 | 51 | 1017.3 |
| 20260508154534 | 15 | 188 | 6.4 | 8.0 | 0.00 | 0.00 | 0.00 | 53 | 1017.3 |
| 20260508154031 | 15 | 184 | 6.4 | 9.7 | 0.00 | 0.00 | 0.00 | 52 | 1017.3 |
| 20260508153527 | 15 | 150 | 8.0 | 9.7 | 0.00 | 0.00 | 0.00 | 51 | 1017.4 |
| 20260508153024 | 15 | 187 | 6.4 | 8.0 | 0.00 | 0.00 | 0.00 | 53 | 1017.4 |
| 20260508152521 | 15 | 169 | 3.2 | 3.2 | 0.00 | 0.00 | 0.00 | 54 | 1017.4 |
| 20260508152017 | 15 | 199 | 8.0 | 11.3 | 0.00 | 0.00 | 0.00 | 52 | 1017.6 |
| 20260508151514 | 14 | 201 | 4.8 | 8.0 | 0.00 | 0.00 | 0.00 | 52 | 1017.7 |
| 20260508151010 | 14 | 178 | 1.6 | 3.2 | 0.00 | 0.00 | 0.00 | 56 | 1017.6 |
| 20260508150508 | 14 | 154 | 0.0 | 3.2 | 0.00 | 0.00 | 0.00 | 55 | 1017.5 |
| 20260508150003 | 14 | 250 | 4.8 | 9.7 | 0.00 | 0.00 | 0.00 | 57 | 1017.5 |
| 20260508145500 | 14 | 203 | 6.4 | 9.7 | 0.00 | 0.00 | 0.00 | 56 | 1017.4 |
| 20260508144956 | 13 | 140 | 4.8 | 8.0 | 0.00 | 0.00 | 0.00 | 62 | 1017.6 |
| 20260508144454 | 13 | 136 | 4.8 | 9.7 | 0.00 | 0.00 | 0.00 | 66 | 1017.5 |
| 20260508143951 | 13 | 155 | 3.2 | 8.0 | 0.00 | 0.00 | 0.00 | 68 | 1017.6 |
| 20260508143449 | 12 | 167 | 1.6 | 3.2 | 0.00 | 0.00 | 0.00 | 72 | 1017.7 |
| 20260508142945 | 12 | 220 | 4.8 | 8.0 | 0.00 | 0.00 | 0.00 | 68 | 1017.7 |
| 20260508142442 | 12 | 213 | 4.8 | 8.0 | 0.00 | 0.00 | 0.00 | 70 | 1017.8 |
| 20260508141938 | 12 | 174 | 1.6 | 4.8 | 0.00 | 0.00 | 0.00 | 74 | 1017.8 |
| 20260508141435 | 12 | 168 | 4.8 | 8.0 | 0.00 | 0.00 | 0.00 | 73 | 1017.8 |
| 20260508140933 | 11 | 142 | 4.8 | 8.0 | 0.00 | 0.00 | 0.00 | 71 | 1018.0 |
| 20260508140430 | 11 | 146 | 4.8 | 9.7 | 0.00 | 0.00 | 0.00 | 71 | 1017.8 |
| 20260508135925 | 11 | 153 | 3.2 | 4.8 | 0.00 | 0.00 | 0.00 | 74 | 1017.9 |
| 20260508135422 | 11 | 188 | 3.2 | 9.7 | 0.00 | 0.00 | 0.00 | 73 | 1017.8 |
| 20260508134919 | 11 | 137 | 6.4 | 8.0 | 0.00 | 0.00 | 0.00 | 71 | 1017.8 |
| 20260508134415 | 11 | 169 | 3.2 | 3.2 | 0.00 | 0.00 | 0.00 | 75 | 1017.7 |
| 20260508133912 | 11 | 134 | 0.0 | 3.2 | 0.00 | 0.00 | 0.00 | 75 | 1017.5 |
| 20260508133410 | 11 | 157 | 1.6 | 3.2 | 0.00 | 0.00 | 0.00 | 76 | 1017.7 |
| 20260508132906 | 11 | 146 | 0.0 | 1.6 | 0.00 | 0.00 | 0.00 | 77 | 1017.6 |
| 20260508132405 | 11 | 148 | 1.6 | 1.6 | 0.00 | 0.00 | 0.00 | 77 | 1017.4 |
| 20260508131901 | 10 | 135 | 0.0 | 1.6 | 0.00 | 0.00 | 0.00 | 79 | 1017.5 |
| 20260508131356 | 9 | 147 | 0.0 | 1.6 | 0.00 | 0.00 | 0.00 | 85 | 1017.5 |
| 20260508130853 | 8 | 155 | 1.6 | 1.6 | 0.00 | 0.00 | 0.00 | 86 | 1017.3 |
| 20260508130350 | 9 | 147 | 0.0 | 1.6 | 0.00 | 0.00 | 0.00 | 87 | 1017.4 |
| 20260508125846 | 9 | 153 | 0.0 | 1.6 | 0.00 | 0.00 | 0.00 | 85 | 1017.4 |
| 20260508125342 | 9 | 121 | 0.0 | 0.0 | 0.00 | 0.00 | 0.00 | 90 | 1017.1 |
| 20260508124840 | 8 | 128 | 0.0 | 0.0 | 0.00 | 0.00 | 0.00 | 90 | 1017.4 |
| 20260508124337 | 8 | 125 | 0.0 | 1.6 | 0.00 | 0.00 | 0.00 | 92 | 1017.5 |
| 20260508123836 | 7 | 117 | 0.0 | 0.0 | 0.00 | 0.00 | 0.00 | 97 | 1017.4 |
| 20260508123334 | 6 | 126 | 0.0 | 0.0 | 0.00 | 0.00 | 0.00 | 99 | 1017.4 |
| 20260508122830 | 6 | 116 | 1.6 | 4.8 | 0.00 | 0.00 | 0.00 | 99 | 1017.1 |
| 20260508122327 | 6 | 109 | 1.6 | 4.8 | 0.00 | 0.00 | 0.00 | 99 | 1017.1 |
| 20260508121824 | 5 | 76 | 1.6 | 4.8 | 0.00 | 0.00 | 0.00 | 99 | 1017.0 |
| 20260508121322 | 5 | 87 | 4.8 | 4.8 | 0.00 | 0.00 | 0.00 | 99 | 1017.1 |
| 20260508120819 | 5 | 133 | 1.6 | 4.8 | 0.00 | 0.00 | 0.00 | 99 | 1017.0 |
| 20260508120317 | 5 | 90 | 3.2 | 3.2 | 0.00 | 0.00 | 0.00 | 99 | 1016.9 |
| 20260508115814 | 5 | 81 | 3.2 | 4.8 | 0.00 | 0.00 | 0.00 | 99 | 1017.0 |
| 20260508115312 | 5 | 65 | 1.6 | 3.2 | 0.00 | 0.00 | 0.00 | 99 | 1017.0 |
| 20260508114808 | 4 | 117 | 1.6 | 1.6 | 0.00 | 0.00 | 0.00 | 99 | 1016.9 |
| 20260508114305 | 3 | 114 | 1.6 | 1.6 | 0.00 | 0.00 | 0.00 | 99 | 1017.1 |
| 20260508113802 | 3 | 85 | 1.6 | 3.2 | 0.00 | 0.00 | 0.00 | 99 | 1016.9 |
| 20260508113300 | 4 | 80 | 0.0 | 1.6 | 0.00 | 0.00 | 0.00 | 99 | 1017.0 |
| 20260508112756 | 3 | 111 | 0.0 | 1.6 | 0.00 | 0.00 | 0.00 | 99 | 1016.9 |
| 20260508112253 | 3 | 118 | 0.0 | 0.0 | 0.00 | 0.00 | 0.00 | 99 | 1016.9 |
| 20260508111749 | 3 | 139 | 0.0 | 0.0 | 0.00 | 0.00 | 0.00 | 99 | 1016.5 |
| 20260508111247 | 3 | 135 | 0.0 | 3.2 | 0.00 | 0.00 | 0.00 | 99 | 1016.5 |
| 20260508110744 | 3 | 130 | 0.0 | 0.0 | 0.00 | 0.00 | 0.00 | 99 | 1016.6 |
| 20260508110242 | 3 | 117 | 0.0 | 0.0 | 0.00 | 0.00 | 0.00 | 99 | 1016.7 |
| 20260508105741 | 3 | 151 | 1.6 | 1.6 | 0.00 | 0.00 | 0.00 | 99 | 1016.6 |
| 20260508105238 | 3 | 131 | 0.0 | 1.6 | 0.00 | 0.00 | 0.00 | 99 | 1016.4 |
| 20260508104736 | 3 | 120 | 1.6 | 1.6 | 0.00 | 0.00 | 0.00 | 99 | 1016.4 |
| 20260508104233 | 3 | 143 | 0.0 | 0.0 | 0.00 | 0.00 | 0.00 | 99 | 1016.1 |
| 20260508103730 | 4 | 117 | 0.0 | 0.0 | 0.00 | 0.00 | 0.00 | 99 | 1016.3 |
| 20260508103227 | 3 | 125 | 0.0 | 0.0 | 0.00 | 0.00 | 0.00 | 99 | 1016.2 |
| 20260508102724 | 3 | 123 | 0.0 | 0.0 | 0.00 | 0.00 | 0.00 | 99 | 1016.2 |
| 20260508102222 | 3 | 133 | 0.0 | 0.0 | 0.00 | 0.00 | 0.00 | 99 | 1016.2 |
| 20260508101719 | 3 | 123 | 0.0 | 0.0 | 0.00 | 0.00 | 0.00 | 99 | 1015.9 |
| 20260508101217 | 3 | 108 | 0.0 | 0.0 | 0.00 | 0.00 | 0.00 | 99 | 1016.0 |
| 20260508100714 | 3 | 104 | 0.0 | 0.0 | 0.00 | 0.00 | 0.00 | 99 | 1015.9 |
| 20260508100212 | 3 | 132 | 0.0 | 0.0 | 0.00 | 0.00 | 0.00 | 99 | 1016.0 |
| 20260508095708 | 3 | 104 | 1.6 | 3.2 | 0.00 | 0.00 | 0.00 | 99 | 1015.9 |
| 20260508095206 | 2 | 99 | 0.0 | 1.6 | 0.00 | 0.00 | 0.00 | 99 | 1016.0 |
| 20260508094702 | 2 | 143 | 0.0 | 0.0 | 0.00 | 0.00 | 0.00 | 99 | 1015.9 |
| 20260508094159 | 2 | 125 | 0.0 | 0.0 | 0.00 | 0.00 | 0.00 | 99 | 1015.9 |
| 20260508093656 | 2 | 87 | 0.0 | 0.0 | 0.00 | 0.00 | 0.00 | 99 | 1015.9 |
| 20260508093154 | 2 | 105 | 0.0 | 0.0 | 0.00 | 0.00 | 0.00 | 99 | 1015.9 |
| 20260508092650 | 3 | 81 | 0.0 | 0.0 | 0.00 | 0.00 | 0.00 | 99 | 1015.8 |
| 20260508092149 | 3 | 113 | 0.0 | 0.0 | 0.00 | 0.00 | 0.00 | 99 | 1016.0 |
| 20260508091646 | 3 | 102 | 0.0 | 0.0 | 0.00 | 0.00 | 0.00 | 99 | 1016.0 |
| 20260508091143 | 3 | 106 | 0.0 | 0.0 | 0.00 | 0.00 | 0.00 | 99 | 1015.9 |
| 20260508090641 | 3 | 88 | 0.0 | 0.0 | 0.00 | 0.00 | 0.00 | 99 | 1015.8 |
| 20260508090138 | 3 | 90 | 0.0 | 0.0 | 0.00 | 0.00 | 0.00 | 99 | 1015.9 |
| 20260508085634 | 3 | 96 | 0.0 | 0.0 | 0.00 | 0.00 | 0.00 | 99 | 1016.1 |
| 20260508085131 | 3 | 95 | 0.0 | 0.0 | 0.00 | 0.00 | 0.00 | 99 | 1016.0 |
| 20260508084627 | 3 | 103 | 0.0 | 0.0 | 0.00 | 0.00 | 0.00 | 99 | 1016.0 |
| 20260508084125 | 3 | 129 | 0.0 | 0.0 | 0.00 | 0.00 | 0.00 | 99 | 1015.9 |
| 20260508083622 | 3 | 128 | 0.0 | 0.0 | 0.00 | 0.00 | 0.00 | 99 | 1016.0 |
| 20260508083119 | 3 | 119 | 0.0 | 0.0 | 0.00 | 0.00 | 0.00 | 99 | 1015.9 |
| 20260508082615 | 3 | 108 | 0.0 | 0.0 | 0.00 | 0.00 | 0.00 | 99 | 1015.9 |
| 20260508082112 | 3 | 143 | 0.0 | 0.0 | 0.00 | 0.00 | 0.00 | 99 | 1015.9 |
| 20260508081609 | 3 | 144 | 0.0 | 0.0 | 0.00 | 0.00 | 0.00 | 99 | 1015.7 |
| 20260508081106 | 3 | 143 | 0.0 | 0.0 | 0.00 | 0.00 | 0.00 | 99 | 1016.0 |
| 20260508080604 | 3 | 144 | 0.0 | 0.0 | 0.00 | 0.00 | 0.00 | 99 | 1015.9 |
| 20260508080101 | 3 | 144 | 0.0 | 0.0 | 0.00 | 0.00 | 0.00 | 99 | 1015.8 |
| 20260508075557 | 3 | 128 | 0.0 | 0.0 | 0.00 | 0.00 | 0.00 | 99 | 1015.8 |
| 20260508075055 | 3 | 134 | 0.0 | 0.0 | 0.00 | 0.00 | 0.00 | 99 | 1015.9 |
| 20260508074552 | 4 | 147 | 0.0 | 0.0 | 0.00 | 0.00 | 0.00 | 99 | 1015.9 |
| 20260508074049 | 4 | 130 | 0.0 | 0.0 | 0.00 | 0.00 | 0.00 | 99 | 1015.9 |
| 20260508073546 | 4 | 114 | 0.0 | 0.0 | 0.00 | 0.00 | 0.00 | 99 | 1015.7 |
| 20260508073044 | 4 | 119 | 0.0 | 0.0 | 0.00 | 0.00 | 0.00 | 99 | 1015.9 |
| 20260508072539 | 4 | 133 | 0.0 | 0.0 | 0.00 | 0.00 | 0.00 | 99 | 1015.9 |
| 20260508072037 | 4 | 113 | 0.0 | 0.0 | 0.00 | 0.00 | 0.00 | 99 | 1015.9 |
| 20260508071535 | 4 | 155 | 0.0 | 0.0 | 0.00 | 0.00 | 0.00 | 99 | 1015.9 |
| 20260508071032 | 5 | 155 | 0.0 | 0.0 | 0.00 | 0.00 | 0.00 | 99 | 1015.8 |
| 20260508070530 | 5 | 128 | 0.0 | 0.0 | 0.00 | 0.00 | 0.00 | 99 | 1015.9 |
| 20260508070028 | 5 | 93 | 0.0 | 0.0 | 0.00 | 0.00 | 0.00 | 99 | 1016.1 |
| 20260508065525 | 5 | 127 | 0.0 | 0.0 | 0.00 | 0.00 | 0.00 | 99 | 1015.9 |
| 20260508065023 | 5 | 127 | 0.0 | 0.0 | 0.00 | 0.00 | 0.00 | 99 | 1015.8 |
| 20260508064520 | 5 | 123 | 0.0 | 0.0 | 0.00 | 0.00 | 0.00 | 99 | 1015.7 |
| 20260508064018 | 5 | 99 | 0.0 | 0.0 | 0.00 | 0.00 | 0.00 | 99 | 1015.8 |
| 20260508063515 | 5 | 102 | 0.0 | 0.0 | 0.00 | 0.00 | 0.00 | 99 | 1016.1 |
| 20260508063013 | 5 | 139 | 0.0 | 0.0 | 0.00 | 0.00 | 0.00 | 99 | 1015.8 |
| 20260508062511 | 5 | 139 | 0.0 | 0.0 | 0.00 | 0.00 | 0.00 | 99 | 1016.2 |
| 20260508062007 | 5 | 129 | 0.0 | 0.0 | 0.00 | 0.00 | 0.00 | 99 | 1016.2 |
| 20260508061505 | 5 | 127 | 0.0 | 0.0 | 0.00 | 0.00 | 0.00 | 99 | 1016.0 |
| 20260508061001 | 5 | 131 | 0.0 | 0.0 | 0.00 | 0.00 | 0.00 | 99 | 1015.9 |
| 20260508060458 | 5 | 146 | 0.0 | 0.0 | 0.00 | 0.00 | 0.00 | 99 | 1015.9 |
| 20260508055954 | 5 | 147 | 0.0 | 0.0 | 0.00 | 0.00 | 0.00 | 99 | 1015.9 |
| 20260508055452 | 4 | 163 | 0.0 | 0.0 | 0.00 | 0.00 | 0.00 | 99 | 1015.7 |
| 20260508054948 | 5 | 152 | 0.0 | 0.0 | 0.00 | 0.00 | 0.00 | 99 | 1016.1 |
| 20260508054445 | 5 | 150 | 0.0 | 0.0 | 0.00 | 0.00 | 0.00 | 99 | 1016.0 |
| 20260508053942 | 5 | 115 | 0.0 | 0.0 | 0.00 | 0.00 | 0.00 | 99 | 1016.1 |
| 20260508053439 | 5 | 134 | 0.0 | 0.0 | 0.00 | 0.00 | 0.00 | 99 | 1015.9 |
| 20260508052937 | 6 | 134 | 0.0 | 0.0 | 0.00 | 0.00 | 0.00 | 99 | 1015.9 |
| 20260508052434 | 6 | 125 | 0.0 | 0.0 | 0.00 | 0.00 | 0.00 | 99 | 1016.0 |
| 20260508051930 | 5 | 78 | 0.0 | 0.0 | 0.00 | 0.00 | 0.00 | 99 | 1016.4 |
| 20260508051426 | 5 | 111 | 0.0 | 0.0 | 0.00 | 0.00 | 0.00 | 99 | 1016.1 |
| 20260508050922 | 6 | 131 | 0.0 | 0.0 | 0.00 | 0.00 | 0.00 | 99 | 1016.2 |
| 20260508050419 | 6 | 131 | 0.0 | 0.0 | 0.00 | 0.00 | 0.00 | 99 | 1016.2 |
| 20260508045915 | 6 | 130 | 0.0 | 0.0 | 0.00 | 0.00 | 0.00 | 99 | 1016.0 |
| 20260508045413 | 5 | 129 | 0.0 | 0.0 | 0.00 | 0.00 | 0.00 | 99 | 1016.2 |
| 20260508044910 | 5 | 137 | 0.0 | 0.0 | 0.00 | 0.00 | 0.00 | 99 | 1016.1 |
| 20260508044408 | 5 | 137 | 0.0 | 0.0 | 0.00 | 0.00 | 0.00 | 99 | 1016.2 |
| 20260508043902 | 5 | 138 | 0.0 | 0.0 | 0.00 | 0.00 | 0.00 | 97 | 1016.2 |
| 20260508043400 | 6 | 138 | 0.0 | 0.0 | 0.00 | 0.00 | 0.00 | 96 | 1016.0 |
| 20260508042856 | 6 | 138 | 0.0 | 0.0 | 0.00 | 0.00 | 0.00 | 96 | 1016.3 |
| 20260508042354 | 6 | 111 | 0.0 | 0.0 | 0.00 | 0.00 | 0.00 | 97 | 1016.0 |
| 20260508041851 | 6 | 139 | 0.0 | 0.0 | 0.00 | 0.00 | 0.00 | 96 | 1015.7 |
| 20260508041347 | 6 | 139 | 0.0 | 0.0 | 0.00 | 0.00 | 0.00 | 96 | 1015.9 |
| 20260508040844 | 6 | 135 | 0.0 | 0.0 | 0.00 | 0.00 | 0.00 | 94 | 1015.7 |
| 20260508040341 | 6 | 135 | 0.0 | 0.0 | 0.00 | 0.00 | 0.00 | 92 | 1015.6 |
| 20260508035839 | 6 | 138 | 0.0 | 0.0 | 0.00 | 0.00 | 0.00 | 90 | 1015.7 |
| 20260508035336 | 7 | 145 | 0.0 | 0.0 | 0.00 | 0.00 | 0.00 | 88 | 1015.7 |
| 20260508034833 | 7 | 118 | 0.0 | 0.0 | 0.00 | 0.00 | 0.00 | 87 | 1015.5 |
| 20260508034330 | 6 | 139 | 0.0 | 0.0 | 0.00 | 0.00 | 0.00 | 86 | 1015.5 |
| 20260508033826 | 6 | 123 | 0.0 | 0.0 | 0.00 | 0.00 | 0.00 | 85 | 1015.5 |
| 20260508033325 | 7 | 125 | 0.0 | 0.0 | 0.00 | 0.00 | 0.00 | 84 | 1015.5 |
| 20260508032822 | 7 | 125 | 0.0 | 0.0 | 0.00 | 0.00 | 0.00 | 82 | 1015.2 |